N4GD Pinellas Park FL US current weather conditions

sailwx.info

Wind from 122 at 3 knots gusting 11

Air temperature 15.0° C
Dewpoint 9.1° C

Last reported at 2020-Feb-22 16:05 UTC.
Time now 2020-Feb-22 16:52 UTC

Location: N 27°52' W 082°44'.
View on Google Maps.

See reports from other nearby stations

  
Tides and Currents Weather Stations Pressure Air Temp Water Temp Dewpoint Dewpoint Depression Visibility Wind Speed Wind Dir Waves Ship Positions
date/time (UTC)wind fromknots sea level pressurealtimeterstation pressurevisibilityair tempwater tempwave heightnotes
2020-Feb-22 16:05 122 3 gusting 11 15.0
2020-Feb-22 15:50 355 4 gusting 10 14.4
2020-Feb-22 15:35 053 5 gusting 11 13.3
2020-Feb-22 15:20 020 3 gusting 10 13.3
2020-Feb-22 15:05 065 4 gusting 12 12.8
2020-Feb-22 14:50 069 5 gusting 12 11.7
2020-Feb-22 14:35 355 3 gusting 8 11.1
2020-Feb-22 14:20 054 5 gusting 11 10.6
2020-Feb-22 14:05 032 4 gusting 11 9.4
2020-Feb-22 13:50 030 4 gusting 10 8.9
2020-Feb-22 13:35 355 3 gusting 11 8.3
2020-Feb-22 13:20 065 3 gusting 11 7.8
2020-Feb-22 13:05 355 4 gusting 13 6.7
2020-Feb-22 12:50 046 3 gusting 13 6.7
2020-Feb-22 12:35 015 3 gusting 10 6.1
2020-Feb-22 12:20 032 4 gusting 13 6.1
2020-Feb-22 12:05 057 3 gusting 9 6.1
2020-Feb-22 11:50 032 3 gusting 9 6.1
2020-Feb-22 11:35 030 4 gusting 8 6.1
2020-Feb-22 11:20 024 5 gusting 13 6.1
2020-Feb-22 11:05 343 5 gusting 8 6.1
2020-Feb-22 10:50 049 4 gusting 8 6.1
2020-Feb-22 10:35 005 3 gusting 9 6.1
2020-Feb-22 10:20 024 3 gusting 6 6.1
2020-Feb-22 10:05 042 4 gusting 10 6.1
2020-Feb-22 09:50 355 5 gusting 10 6.1
2020-Feb-22 09:35 053 5 gusting 10 6.1
2020-Feb-22 09:20 348 5 gusting 9 6.1
2020-Feb-22 09:05 355 6 gusting 10 6.1
2020-Feb-22 08:50 024 6 gusting 13 6.1
2020-Feb-22 08:35 005 5 gusting 8 6.7
2020-Feb-22 08:20 026 4 gusting 10 6.7
2020-Feb-22 08:05 040 5 gusting 9 6.7
2020-Feb-22 07:50 345 6 gusting 12 6.7
2020-Feb-22 07:35 041 6 gusting 11 6.7
2020-Feb-22 07:20 034 5 gusting 13 7.2
2020-Feb-22 07:05 350 4 gusting 10 7.2
2020-Feb-22 06:50 053 6 gusting 13 7.2
2020-Feb-22 06:35 057 6 gusting 15 7.8
2020-Feb-22 06:20 049 5 gusting 15 7.8
2020-Feb-22 06:05 019 5 gusting 13 7.8
2020-Feb-22 05:50 040 6 gusting 13 7.8
2020-Feb-22 05:35 041 6 gusting 12 7.8
2020-Feb-22 05:20 050 6 gusting 13 7.8
2020-Feb-22 05:05 051 6 gusting 12 8.3
2020-Feb-22 04:50 091 6 gusting 18 8.3
2020-Feb-22 04:35 035 6 gusting 15 8.3
2020-Feb-22 04:20 040 6 gusting 15 8.3
2020-Feb-22 04:05 022 4 gusting 11 8.3
2020-Feb-22 03:50 049 6 gusting 16 8.3
2020-Feb-22 03:35 013 6 gusting 19 8.3
2020-Feb-22 03:20 024 6 gusting 17 8.3
2020-Feb-22 03:05 035 6 gusting 19 8.9
2020-Feb-22 02:50 030 6 gusting 19 8.9
2020-Feb-22 02:35 029 5 gusting 11 9.4
2020-Feb-22 02:20 041 4 gusting 11 9.4
2020-Feb-22 02:05 023 6 gusting 17 9.4
2020-Feb-22 01:50 038 7 gusting 17 9.4
2020-Feb-22 01:35 005 7 gusting 15 9.4
2020-Feb-22 01:20 015 6 gusting 17 9.4
2020-Feb-22 01:05 019 6 gusting 16 10.0
2020-Feb-22 00:50 023 6 gusting 16 10.0
2020-Feb-22 00:35 048 5 gusting 13 10.0
2020-Feb-22 00:20 023 6 gusting 13 10.0
2020-Feb-22 00:05 057 4 gusting 11 10.0
2020-Feb-21 23:50 052 6 gusting 15 10.0
2020-Feb-21 23:35 019 6 gusting 13 10.0
2020-Feb-21 23:20 049 5 gusting 12 10.6
2020-Feb-21 23:05 043 6 gusting 13 10.6
2020-Feb-21 22:50 061 5 gusting 13 10.6
2020-Feb-21 22:35 053 6 gusting 13 11.1
2020-Feb-21 22:20 061 6 gusting 19 11.1
2020-Feb-21 22:05 053 6 gusting 13 11.7
2020-Feb-21 21:50 043 6 gusting 13 11.7
2020-Feb-21 21:35 032 6 gusting 16 11.7
2020-Feb-21 21:20 355 6 gusting 13 12.2
2020-Feb-21 21:05 013 6 gusting 18 12.8
2020-Feb-21 20:50 355 7 gusting 16 12.8
2020-Feb-21 20:35 070 6 gusting 13 13.3
2020-Feb-21 20:20 019 6 gusting 18 13.3
2020-Feb-21 20:05 005 6 gusting 16 13.3
2020-Feb-21 19:50 082 6 gusting 15 13.9
2020-Feb-21 19:35 322 5 gusting 13 13.9
2020-Feb-21 19:20 329 6 gusting 13 13.9
2020-Feb-21 19:05 042 7 gusting 16 14.4
2020-Feb-21 18:50 042 6 gusting 12 14.4
2020-Feb-21 18:35 019 6 gusting 17 14.4
2020-Feb-21 18:20 046 6 gusting 15 14.4
2020-Feb-21 18:05 024 6 gusting 19 14.4
2020-Feb-21 17:50 061 7 gusting 16 14.4
2020-Feb-21 17:35 040 6 gusting 17 14.4
2020-Feb-21 17:20 088 6 gusting 12 14.4
2020-Feb-21 17:05 063 6 gusting 12 14.4
2020-Feb-21 16:50 034 6 gusting 16 13.9
2020-Feb-21 16:35 062 6 gusting 16 13.3
2020-Feb-21 16:20 351 7 gusting 16 12.8
2020-Feb-21 16:05 042 6 gusting 15 12.8
2020-Feb-21 15:50 031 6 gusting 13 12.2
2020-Feb-21 15:35 051 5 gusting 13 12.2
2020-Feb-21 15:20 040 6 gusting 17 11.7
2020-Feb-21 15:05 355 6 gusting 15 11.7
2020-Feb-21 14:50 013 7 gusting 16 11.7
2020-Feb-21 14:35 014 6 gusting 15 11.1
2020-Feb-21 14:20 355 7 gusting 13 11.1
2020-Feb-21 14:05 038 6 gusting 13 11.7
2020-Feb-21 13:50 026 6 gusting 17 11.7
2020-Feb-21 13:35 342 6 gusting 15 11.7
2020-Feb-21 13:20 045 4 gusting 12 12.2
2020-Feb-21 13:05 046 6 gusting 17 11.7
2020-Feb-21 12:50 015 6 gusting 17 12.2
2020-Feb-21 12:35 334 6 gusting 13 12.2
2020-Feb-21 12:20 015 6 gusting 13 12.8
2020-Feb-21 12:05 035 5 gusting 13 12.2
2020-Feb-21 11:50 011 6 gusting 16 12.8
2020-Feb-21 11:35 042 6 gusting 16 13.3
2020-Feb-21 11:20 089 4 gusting 11 13.3
2020-Feb-21 11:05 055 5 gusting 18 13.9
2020-Feb-21 10:50 012 4 gusting 12 13.9
2020-Feb-21 10:35 030 6 gusting 18 14.4
2020-Feb-21 10:20 351 5 gusting 15 15.0
2020-Feb-21 10:05 034 6 gusting 13 16.1
2020-Feb-21 09:50 342 3 gusting 13 17.8
2020-Feb-21 09:35 013 2 gusting 7 19.4
2020-Feb-21 09:20 314 3 gusting 9 20.0
2020-Feb-21 09:05 343 4 gusting 12 20.0
2020-Feb-21 08:57 324 3 gusting 9 20.6
2020-Feb-21 08:35 323 1 gusting 8 20.6
2020-Feb-21 08:20 303 2 gusting 10 21.1
2020-Feb-21 08:05 292 3 gusting 9 21.1
2020-Feb-21 07:50 273 4 gusting 13 22.2
2020-Feb-21 07:34 227 0 gusting 5 22.2
2020-Feb-21 07:19 227 0 gusting 6 22.2
2020-Feb-21 07:04 207 0 gusting 5 22.2
2020-Feb-21 06:49 215 0 gusting 5 22.2
2020-Feb-21 06:34 244 0 gusting 6 22.2
2020-Feb-21 06:19 217 22.2
2020-Feb-21 06:04 217 22.2
2020-Feb-21 05:57 210 0 gusting 4 22.2
2020-Feb-21 05:35 250 0 gusting 5 22.2
2020-Feb-21 05:19 198 0 gusting 6 22.2
2020-Feb-21 05:04 222 0 gusting 6 22.2
2020-Feb-21 04:49 246 22.2
2020-Feb-21 04:34 261 0 gusting 5 22.2
2020-Feb-21 04:19 232 22.2
2020-Feb-21 04:04 229 22.2
2020-Feb-21 03:49 229 22.2
2020-Feb-21 03:34 229 22.2
2020-Feb-21 03:19 229 22.2
2020-Feb-21 03:04 246 22.2
2020-Feb-21 02:49 254 22.2
2020-Feb-21 02:34 304 22.2
2020-Feb-21 02:19 272 0 gusting 6 22.8
2020-Feb-21 02:04 287 0 gusting 6 22.8
2020-Feb-21 01:49 224 22.8
2020-Feb-21 01:34 253 22.8
2020-Feb-21 01:19 253 0 gusting 4 22.8
2020-Feb-21 01:04 278 0 gusting 6 22.8
2020-Feb-21 00:49 238 1 gusting 8 22.8
2020-Feb-21 00:34 261 1 gusting 6 22.8
2020-Feb-21 00:19 267 0 gusting 6 22.8
2020-Feb-21 00:04 246 23.3
2020-Feb-20 23:49 241 23.3
2020-Feb-20 23:34 239 0 gusting 3 23.9
2020-Feb-20 23:19 283 1 gusting 7 23.9
2020-Feb-20 23:04 263 1 gusting 6 24.4
2020-Feb-20 22:49 226 0 gusting 8 25.0
2020-Feb-20 22:34 250 2 gusting 7 25.6
2020-Feb-20 22:19 300 2 gusting 9 26.1
2020-Feb-20 22:04 234 2 gusting 8 26.7
2020-Feb-20 21:49 243 2 gusting 9 26.7
2020-Feb-20 21:34 265 2 gusting 7 26.7
2020-Feb-20 21:19 260 3 gusting 11 26.7
2020-Feb-20 21:04 237 3 gusting 9 26.7
2020-Feb-20 20:49 207 3 gusting 10 26.7
2020-Feb-20 20:34 256 4 gusting 7 26.7
2020-Feb-20 20:19 211 4 gusting 10 26.7
2020-Feb-20 20:04 235 4 gusting 12 26.7
2020-Feb-20 19:49 215 2 gusting 12 27.2
2020-Feb-20 19:34 275 3 gusting 11 27.2
2020-Feb-20 19:19 179 5 gusting 16 27.2
2020-Feb-20 19:04 251 5 gusting 13 26.7
2020-Feb-20 18:49 196 5 gusting 13 27.2
2020-Feb-20 18:34 205 5 gusting 13 27.2
2020-Feb-20 18:19 221 6 gusting 16 27.2
2020-Feb-20 18:04 177 5 gusting 13 27.8
2020-Feb-20 17:49 198 5 gusting 15 27.8
2020-Feb-20 17:34 196 5 gusting 11 27.8
2020-Feb-20 17:19 129 6 gusting 13 27.2
2020-Feb-20 17:04 220 5 gusting 12 27.2
2020-Feb-20 16:49 186 2 gusting 11 27.2
2020-Feb-20 16:34 165 4 gusting 10 26.7
2020-Feb-20 16:19 157 1 gusting 6 26.1
2020-Feb-20 16:04 169 0 gusting 5 25.0